CZ-6A DEB

Satellite information

Favourite Embed

Satellite Type and Status

DEBRISIN ORBIT

Key statistics

Satellite CZ-6A DEB at a glance.

Uptime

967

Days in orbit

Revolutions

≈ 14.5

Per day

Orbit

SSO

Sun Synchronous Orbit

Inclination

98.6

Latest

Satellite identification and parameters

Extended collection of information and parameters for CZ-6A DEB.

Object identification

Identified? True

Debris? True

Object name: CZ-6A DEB

International designator: 2022-151AFD

Object number (NORAD): 56629

Object ID (CCSDS): 56629

Country: PEOPLES REPUBLIC OF CHINA (PRC)

Current information (Y/N): Y

RCS size: SMALL

Orbital parameters

Period: 99.043 minutes

Inclination: 98.6414 deg

SMA: 7091.008 km

Apoapsis: 769.863 km

Periapsis: 655.883 km

RAAN: 218.3147 deg

Eccentricy: 0.0080369

Argument of periapsis: 320.5404 deg

Mean anomaly: 38.9955 deg

Mean motion: 14.53920958 rev/day

Mean motion (dot): 0.00006552 rev/day2

B* drag term: 0.0015025 1/REarth

Two-line elements (TLE)

Creation date: July 3, 2025, 5:26 p.m.

Reference frame: TEME

Reference center: EARTH

Epoch: July 3, 2025, 1:20 a.m. UTC

TLE line 0: 0 CZ-6A DEB

TLE line 1: 1 56629U 22151AFD 25184.05593036 .00006552 00000-0 15025-2 0 9993

TLE line 2: 2 56629 98.6414 218.3147 0080369 320.5404 38.9955 14.53920958115802

Live tracking on map

Real-time ground track for satellite CZ-6A DEB.

In-orbit conjunctions

A list of the most updated potential collisions computed for object CZ-6A DEB.

Target Orbit TCA Probability of collision Miss distance Type
TRAILBLAZER 2 LEO 2025-06-13 00:51:42 0.0001309713 262.0 (m) PAYLOAD
THOR BURNER 2 R/B SSO 2024-08-30 06:19:03 0.0005045805 206.0 (m) ROCKET BODY

Associated space launch

Chinese satellite reported for atmospheric/ocean/environmental/spatial parameter research purposes, details TBD.

CZ-6A DEB was lifted into orbit during the mission ‘Long March 6A | Yunhai 3’, on board a Long March 6A space rocket.

The launch took place on Nov. 11, 2022, 10:52 p.m. from Launch Complex 9A.

For more information about the launch, click the button.

Launch to space Long March 6A | Yunhai 3
Long March 6A | Yunhai 3

Agency: N/A

Status: Launch Successful

Launch date: Nov. 11, 2022, 10:52 p.m. UTC

Rocket: Long March 6A

Launch pad: Launch Complex 9A

Location: Taiyuan Satellite Launch Center, People's Republic of China

...

Latest news about this satellite

There are no fresh news available about this satellite. Check back as we update our databases every day.


Newsletter sign-up

Weekly statistics, charts and insights to help you stay on top of the space industry.